Regional Weather Roundup
Issued by NWS

Home | Current Version | Previous Version | Text Only | Print | Product List | Glossary Off
Versions: 1 2 3 4 5 6 7 8 9 10 11 12 13 14 15 16 17 18 19 20 21 22 23 24 25 26 27 28 29 30 31 32 33 34 35 36 37 38 39 40 41 42 43 44 45 46 47 48 49 50

000
ASUS43 KIND 180409
RWRIN

WEATHER ROUNDUP FOR INDIANA
NATIONAL WEATHER SERVICE INDIANAPOLIS IN
1200 AM EDT FRI APR 18 2014

NOTE: "FAIR" INDICATES FEW OR NO CLOUDS BELOW 12,000 FEET WITH NO
SIGNIFICANT WEATHER AND/OR OBSTRUCTIONS TO VISIBILITY.

* - STATION DOES NOT REPORT WEATHER SUCH AS PRECIPITATION OR FOG.

+ - STATION NOT QUALITY CONTROLLED BY THE NATIONAL WEATHER SERVICE.
    USE DATA WITH CAUTION...ESPECIALLY DEWPOINT AND RELATIVE
    HUMIDITY OBSERVATIONS.

INZ001>003-010>013-019-020-180500-
NORTHWEST INDIANA

CITY           SKY/WX    TMP DP  RH WIND       PRES   REMARKS
GARY /AIRPORT/ CLOUDY    55  39  54 W6        30.25S
LA PORTE +     CLOUDY    52  39  61 W3        30.24F
MICHIGAN CITY+ CLOUDY    50  37  62 CALM      30.25S
MONTICELLO +   CLOUDY    51  40  66 CALM      30.25S
RENSSELAER +   CLOUDY    50  41  71 CALM      30.26R
VALPARAISO     CLOUDY    52  38  58 W3        30.24F

$$

LMZ046-743>745-180500-
SOUTHERN LAKE MICHIGAN

STATION/POSITION TIME  TEMP WIND        PRES
                       AIR  DIR/SP/G
                 (UTC) (F)  (DEG/KT/KT) (MB)
MICHIGAN CITY    0400   46   30/  4/  5   N/A

$$

INZ004-005-014>016-021>024-180500-
NORTH CENTRAL INDIANA

CITY           SKY/WX    TMP DP  RH WIND       PRES   REMARKS
GOSHEN         MOCLDY    52  40  63 CALM      30.24S
LOGANSPORT +   CLOUDY    52  37  58 W8        30.27R
PERU/GRISSOM   CLOUDY    51  42  71 S5        30.25S
ROCHESTER +    CLOUDY    54  41  62 CALM      30.26S
SOUTH BEND     CLOUDY    52  37  56 CALM      30.25F
WARSAW +       CLOUDY    52  37  58 CALM      30.24F

$$

INZ006>009-017-018-025>027-180500-
NORTHEAST INDIANA

CITY           SKY/WX    TMP DP  RH WIND       PRES   REMARKS
ANGOLA *+      CLOUDY    48  39  71 CALM      30.24S
AUBURN +       CLOUDY    52  32  46 CALM      30.25S
FORT WAYNE     CLOUDY    50  37  61 S6        30.26S

$$

INZ028-029-035-036-043>045-051>053-180500-
WEST CENTRAL INDIANA

CITY           SKY/WX    TMP DP  RH WIND       PRES   REMARKS
GREENCASTLE +  PTCLDY    46  36  66 CALM      30.27S
LAFAYETTE      CLOUDY    52  39  61 CALM      30.26R
TERRE HAUTE    MOCLDY    50  40  68 CALM      30.26S

$$

INZ030>032-037>040-046>048-054>057-064-065-180500-
CENTRAL INDIANA

CITY           SKY/WX    TMP DP  RH WIND       PRES   REMARKS
CP ATTERBURY + PTCLDY    46  36  66 CALM      30.27F
INDIANAPOLIS   MOCLDY    52  36  54 SE7       30.28R
-EAGLE CREEK   PTCLDY    49  42  77 CALM      30.26S
KOKOMO *+      CLOUDY    54  37  54 SW7       30.25S
MARION +       CLOUDY    49  37  65 S3        30.26S
MT COMFORT *+  PTCLDY    46  39  76 CALM      30.27S
SHELBYVILLE    PTCLDY    48  37  65 S3        30.27R
ZIONSVILLE +   PTCLDY    46  35  64 CALM      30.27S

$$

INZ033-034-041-042-049-050-058-059-180500-
EAST CENTRAL INDIANA

CITY           SKY/WX    TMP DP  RH WIND       PRES   REMARKS
MUNCIE         MOCLDY    53  35  50 S3        30.26S

$$

INZ060-061-067>069-081>083-085>088-180500-
SOUTHWEST INDIANA

CITY           SKY/WX    TMP DP  RH WIND       PRES   REMARKS
EVANSVILLE     MOCLDY    53  42  66 CALM      30.27S
HUNTINGBURG *+ PTCLDY    52  37  58 CALM      30.27F
WASHINGTON +   PTCLDY    47  44  90 CALM      30.27R

$$

INZ062-063-066-070>080-084-089>092-180500-
SOUTH CENTRAL AND SOUTHEAST INDIANA

CITY           SKY/WX    TMP DP  RH WIND       PRES   REMARKS
BEDFORD +      PTCLDY    52  30  43 CALM      30.27S
BLOOMINGTON    PTCLDY    44  36  73 CALM      30.27S
SEYMOUR +      PTCLDY    41  27  56 W6        30.27

$$




USA.gov is the U.S. government's official web portal to all federal, state and local government web resources and services.